0 HST 1 20580U 90037B 25351.10253682 .00005953 00000-0 20311-3 0 9999 2 20580 28.4677 242.7933 0001895 295.0426 64.9973 15.28113078760661 0 ISS (ZARYA) 1 25544U 98067A 25351.05542497 .00007770 00000-0 14583-3 0 9997 2 25544 51.6309 121.1077 0003173 260.4156 99.6474 15.49629327543529 0 CXO 1 25867U 99040B 25351.90728450 .00000514 00000-0 00000-0 0 9991 2 25867 53.1169 122.3471 8128116 310.8350 0.1965 0.37801682 16634